This is the latest recevied weather packets stored in our database for station/object WX2NJ-13. If no packets are shown the sender has not sent any weather packets the latest 1 day(s).
| Time | Temp. | Humidity | Pressure | Rain* | Wind** | Luminosity | Snow |
|---|---|---|---|---|---|---|---|
| 1778074402 | 21.11° C | 62% | 1011.4 hPa | 0 mm | 1.34 m/s, 197° | - | - |
| 1778074103 | 21.11° C | 64% | 1011.4 hPa | 0 mm | 0.89 m/s, 166° | - | - |
| 1778073204 | 20.56° C | 66% | 1011.6 hPa | 0 mm | 1.34 m/s, 153° | - | - |
| 1778072604 | 20° C | 68% | 1011.5 hPa | 0 mm | 1.34 m/s, 167° | - | - |
| 1778072004 | 19.44° C | 69% | 1011.6 hPa | 0 mm | 0.89 m/s, 153° | - | - |
| 1778071705 | 18.89° C | 70% | 1011.5 hPa | 0 mm | 2.68 m/s, 165° | - | - |
| 1778071105 | 18.89° C | 70% | 1011.3 hPa | 0 mm | 1.34 m/s, 169° | - | - |
| 1778069609 | 18.33° C | 74% | 1011.6 hPa | 0 mm | 1.34 m/s, 125° | - | - |
| 1778068710 | 17.78° C | 74% | 1011.5 hPa | 0 mm | 1.34 m/s, 155° | - | - |
| 1778068110 | 17.78° C | 76% | 1011.7 hPa | 0 mm | 0.89 m/s, 193° | - | - |
| 1778067510 | 17.22° C | 79% | 1011.7 hPa | 0 mm | 1.34 m/s, 239° | - | - |
| 1778066014 | 16.67° C | 81% | 1011.9 hPa | 0 mm | 1.34 m/s, 176° | - | - |
| 1778065414 | 16.11° C | 82% | 1011.8 hPa | 0 mm | 0.89 m/s, 146° | - | - |
| 1778064814 | 16.11° C | 83% | 1011.6 hPa | 0 mm | 1.34 m/s, 162° | - | - |
| 1778064515 | 16.11° C | 83% | 1011.6 hPa | 0 mm | 0.89 m/s, 217° | - | - |
| 1778063915 | 15.56° C | 83% | 1011.7 hPa | 0 mm | 0.89 m/s, 166° | - | - |
| 1778063616 | 15.56° C | 83% | 1011.7 hPa | 0 mm | 0.45 m/s, 184° | - | - |
| 1778063016 | 15.56° C | 83% | 1011.6 hPa | 0 mm | 0.45 m/s, 160° | - | - |
| 1778062717 | 15.56° C | 83% | 1011.5 hPa | 0 mm | 0.45 m/s, 125° | - | - |
| 1778062117 | 15.56° C | 83% | 1011.4 hPa | 0 mm | 0.45 m/s, 159° | - | - |
| 1778061520 | 15.56° C | 83% | 1011.4 hPa | 0 mm | 0.45 m/s, 188° | - | - |
| 1778061219 | 15.56° C | 83% | 1011.4 hPa | 0 mm | 1.34 m/s, 129° | - | - |
| 1778060920 | 15.56° C | 83% | 1011.3 hPa | 0 mm | 0 m/s | - | - |
| 1778060022 | 15.56° C | 84% | 1011.4 hPa | 0 mm | 0 m/s | - | - |
| 1778059723 | 15.56° C | 84% | 1011.4 hPa | 0 mm | 0.89 m/s, 148° | - | - |
* Rain latest hour (hover to see other rain measurements)
** Current wind speed in m/s (hover to see current wind gust speed)